Header for Extended Forecast Station List Page

Search by: ID | Name | Date | Parm | Value | Avg | % Avg
Sort by: ID | Name | Date | Parm | Value | Avg | % Avg

Enter search or view all records.

Click on id for station plot
#IDNameDateParmValueAvg% Avg
0ABOM8CLARK FORK-ABOVE MISSOULA06-27-2022DISCHARGE (KAF)520438119
1AFRI1SNAKE-AMERICAN FALLS RESERVOIR06-27-2022INFLOW (KAF)1074118291
2ALFW1PEND OREILLE-ALBENI FALLS DAM06-27-2022INFLOW (KAF)51873658142
3ALPW4SNAKE-NEAR ALPINE06-27-2022DISCHARGE (KAF)1110115996
4ANAW1SNAKE-NEAR ANATONE06-27-2022DISCHARGE (KAF)52234824108
5ANTI1HENRYS FORK-AT ST. ANTHONY06-27-2022DISCHARGE (KAF)25630385
6ARAI1SF BOISE-ANDERSON RANCH DAM06-27-2022INFLOW (KAF)758589
7ARDW1ENTIAT-NEAR ARDENVOIR06-27-2022DISCHARGE (KAF)9155164
8BELM8CLARK FORK-BELOW MISSOULA06-27-2022DISCHARGE (KAF)900760118
9BERO3MALHEUR-AGENCY VALLEY DAM06-27-2022INFLOW (KAF)71261
10BFEI1KOOTENAI-AT BONNERS FERRY06-27-2022STAGE (FT)MMM
11BFTI1SNAKE-NEAR BLACKFOOT06-27-2022DISCHARGE (KAF)52064481
12BIGI1BOISE-AT GLENWOOD BRIDGE06-27-2022DISCHARGE (KAF)195190103
13BITM8BITTERROOT-NEAR MISSOULA06-27-2022DISCHARGE (KAF)379302126
14BONM8BLACKFOOT-NEAR BONNER06-27-2022DISCHARGE (KAF)301212142
15BONO3COLUMBIA-BONNEVILLE DAM06-27-2022INFLOW (KAF)4281133355128
16BRNI1SNAKE-BROWNLEE DAM06-27-2022INFLOW (KAF)26342559103
17BUDW1BUMPING-BUMPING LAKE DAM06-27-2022INFLOW (KAF)3726141
18BULO3BULLY CREEK-BULLY CREEK DAM06-27-2022INFLOW (KAF)MMM
19CABI1CLARK FORK-CABINET GORGE DAM06-27-2022INFLOW (KAF)49793635137
20CFMM8FLATHEAD-AT COLUMBIA FALLS06-27-2022DISCHARGE (KAF)23621584149
21CHDW1CHELAN-LAKE CHELAN DAM06-27-2022INFLOW (KAF)811344236
22CHEI1FALL RIVER-NEAR CHESTER06-27-2022DISCHARGE (KAF)6310162
23CHJW1COLUMBIA-CHIEF JOSEPH DAM06-27-2022INFLOW (KAF)2893522195130
24CIBW1COLUMBIA-AT INTL BOUNDARY06-27-2022DISCHARGE (KAF)2889123159125
25CLFW1NACHES-NEAR CLIFFDEL06-27-2022DISCHARGE (KAF)133102130
26CLUW1CLE ELUM-CLE ELUM LAKE06-27-2022INFLOW (KAF)20197207
27COEI1COEUR D ALENE-COEUR D ALENE LAKE06-27-2022INFLOW (KAF)410253162
28CSDI1NF PAYETTE-CASCADE DAM06-27-2022INFLOW (KAF)7666114
29DEDI1DEADWOOD-NEAR LOWMAN06-27-2022INFLOW (KAF)232692
30DLGM8CLARK FORK-AT DEER LODGE06-27-2022DISCHARGE (KAF)4337118
31DRMM8CLARK FORK-NR DRUMMOND06-27-2022DISCHARGE (KAF)10510897
32DWRI1NF CLEARWATER-DWORSHAK DAM06-27-2022INFLOW (KAF)592390152
33EASW1YAKIMA-AT EASTON06-27-2022DISCHARGE (KAF)697592
34EMMI1PAYETTE-NEAR EMMETT06-27-2022DISCHARGE (KAF)448352127
35FCFM8NF FLATHEAD-NEAR COLUMBIA FALLS06-27-2022DISCHARGE (KAF)741430172
36GCDW1COLUMBIA-GRAND COULEE DAM06-27-2022INFLOW (KAF)3008822064136
37GIBO3UMATILLA-NEAR GIBBON06-27-2022DISCHARGE (KAF)1312108
38HALI1BIG WOOD-AT HAILEY06-27-2022DISCHARGE (KAF)7464116
39HEII1SNAKE-NEAR HEISE06-27-2022DISCHARGE (KAF)1955218290
40HHWM8SF FLATHEAD-HUNGRY HORSE DAM06-27-2022INFLOW (KAF)579367158
41HODO3HOOD-NEAR TUCKER BRIDGE06-27-2022DISCHARGE (KAF)10090112
42HOPI1PEND OREILLE-PEND OREILLE LAKE NR HOPE06-27-2022LAKE ELEVATION (FT)MMM
43HOTI1BRUNEAU-NEAR HOT SPRINGS06-27-2022DISCHARGE (KAF)242597
44HWRI1BIG LOST-AT HOWELL RANCH NEAR CHILLY06-27-2022DISCHARGE (KAF)7452141
45IHDW1SNAKE-ICE HARBOR DAM06-27-2022INFLOW (KAF)81907292112
46IPDI1HENRYS FORK-ISLAND PARK DAM06-27-2022INFLOW (KAF)11813488
47JDAO3COLUMBIA-JOHN DAY DAM06-27-2022INFLOW (KAF)4171831903131
48JKSW4SNAKE-NEAR JACKSON06-27-2022DISCHARGE (KAF)94398895
49JLKW4SNAKE-JACKSON LAKE AT DAM06-27-2022INFLOW (KAF)217206106
50KADW1KACHESS-KACHESS DAM06-27-2022INFLOW (KAF)3822168
51KEDW1YAKIMA-KEECHELUS LAKE06-27-2022INFLOW (KAF)4027147
52KERM8FLATHEAD-SELI’Š KSANKA QLISPE’ DAM06-27-2022INFLOW (KAF)27131880144
53KIOW1YAKIMA-AT KIONA06-27-2022DISCHARGE (KAF)459389118
54LAUW1KETTLE-AT LAURIER06-27-2022DISCHARGE (KAF)395247160
55LEOI1KOOTENAI-AT LEONIA06-27-2022DISCHARGE (KAF)27862415115
56LGDW1SNAKE-LOWER GRANITE DAM06-27-2022INFLOW (KAF)81697293112
57LGSW1SNAKE-LITTLE GOOSE DAM06-27-2022INFLOW (KAF)81457284112
58LLKW1SPOKANE-AT LONGLAKE06-27-2022INFLOW (KAF)667572117
59LMNW1SNAKE-LOWER MONUMENTAL DAM06-27-2022INFLOW (KAF)81847279112
60LUCI1BOISE-LUCKY PEAK DAM06-27-2022INFLOW (KAF)570543105
61LWRI1LITTLE WOOD-LITTLE WOOD DAM06-27-2022INFLOW (KAF)131493
62LYDM8KOOTENAI-LIBBY DAM06-27-2022INFLOW (KAF)33672312146
63MACI1BIG LOST-MACKAY RESERVOIR NEAR MACKAY06-27-2022INFLOW (KAF)8558146
64MAGI1BIG WOOD-MAGIC DAM06-27-2022INFLOW (KAF)3232101
65MCDW1COLUMBIA-MCNARY DAM06-27-2022INFLOW (KAF)4117332130128
66MILI1SNAKE-AT MILNER06-27-2022DISCHARGE (KAF)0380
67MODO3DESCHUTES-AT MOODY NR BIGGS06-27-2022DISCHARGE (KAF)1069108998
68MONO3NF JOHN DAY-AT MONUMENT06-27-2022DISCHARGE (KAF)9639244
69MYKO3MCKAY CREEK-NEAR PILOT ROCK06-27-2022DISCHARGE (KAF)811115
70NACW1NACHES-NEAR NACHES06-27-2022DISCHARGE (KAF)19522487
71NOXM8CLARK FORK-NOXON RAPIDS DAM06-27-2022INFLOW (KAF)45183300137
72ORFI1CLEARWATER-AT OROFINO06-27-2022DISCHARGE (KAF)1008692146
73OWYO3OWYHEE-OWYHEE DAM06-27-2022INFLOW (KAF)486278
74PARI1BOISE-NEAR PARMA06-27-2022DISCHARGE (KAF)220193114
75PARW1YAKIMA-NEAR PARKER06-27-2022DISCHARGE (KAF)155135114
76PATW1METHOW-NEAR PATEROS06-27-2022DISCHARGE (KAF)375199189
77PDTO3UMATILLA-AT PENDLETON06-27-2022DISCHARGE (KAF)3913287
78PESW1WENATCHEE-AT PESHASTIN06-27-2022DISCHARGE (KAF)688378182
79PIHI1PORTNEUF-AT POCATELLO06-27-2022DISCHARGE (KAF)131869
80PITW1KLICKITAT-NEAR PITT06-27-2022DISCHARGE (KAF)238201118
81PLDI1SF SNAKE-PALISADES DAM06-27-2022INFLOW (KAF)1425149795
82PRTI1PRIEST-NEAR PRIEST RIVER06-27-2022DISCHARGE (KAF)255172148
83PRWW1COLUMBIA-PRIEST RAPIDS DAM06-27-2022INFLOW (KAF)3216624068134
84RCCM8ROCK CREEK-NEAR CLINTON06-27-2022DISCHARGE (KAF)9288105
85REXI1HENRYS FORK-AT REXBURG06-27-2022DISCHARGE (KAF)29430298
86RIDI1WILLOW CREEK-RIRIE DAM06-27-2022INFLOW (KAF)2638
87RILW1TIETON-RIMROCK LAKE NEAR RIMROCK06-27-2022INFLOW (KAF)10680133
88RRHW1COLUMBIA-ROCKY REACH DAM06-27-2022INFLOW (KAF)3101823643131
89SATI1ST MARIES-NEAR SANTA06-27-2022DISCHARGE (KAF)3317192
90SERO3JOHN DAY-AT SERVICE CK06-27-2022DISCHARGE (KAF)10461172
91SHYI1SNAKE-NEAR SHELLEY06-27-2022DISCHARGE (KAF)1027122384
92SIFI1SNAKE-AB EAGLE ROCK NR IDAHO FALLS06-27-2022DISCHARGE (KAF)1186133589
93SJMI1ST JOE-AT ST MARIES06-27-2022STAGE (FT)MMM
94SNAI1SNAKE-AT BLACKFOOT06-27-2022DISCHARGE (KAF)53267279
95SPDI1CLEARWATER-AT SPALDING06-27-2022DISCHARGE (KAF)29462289129
96SPOW1SPOKANE-AT SPOKANE06-27-2022DISCHARGE (KAF)472422112
97SRGM8CLARK FORK-AT ST REGIS06-27-2022DISCHARGE (KAF)1159989117
98STRM8ST. REGIS-NEAR ST. REGIS06-27-2022DISCHARGE (KAF)5939149
99SWAI1SNAKE-BELOW SWAN FALLS06-27-2022DISCHARGE (KAF)1564164895
100TCHW1WALLA WALLA-NEAR TOUCHET06-27-2022DISCHARGE (KAF)469521
101TDAO3COLUMBIA-THE DALLES DAM06-27-2022INFLOW (KAF)4221432357130
102TEAI1TETON-NEAR ST. ANTHONY06-27-2022DISCHARGE (KAF)186182102
103TNAW1TEANAWAY-BELOW FORKS06-27-2022DISCHARGE (KAF)179188
104TONW1OKANOGAN-NEAR TONASKET06-27-2022DISCHARGE (KAF)822415198
105TRYO3GRANDE RONDE-TROY06-27-2022DISCHARGE (KAF)399245163
106UMAO3UMATILLA-NEAR UMATILLA06-27-2022DISCHARGE (KAF)182769
107UMTW1YAKIMA-AT UMTANUM06-27-2022DISCHARGE (KAF)658642103
108UNDW1WHITE SALMON-NEAR UNDERWOOD06-27-2022DISCHARGE (KAF)191163117
109WANW1COLUMBIA-WANAPUM DAM06-27-2022INFLOW (KAF)3214523956134
110WEII1SNAKE-AT WEISER06-27-2022DISCHARGE (KAF)25102452102
111WELW1COLUMBIA-WELLS DAM06-27-2022INFLOW (KAF)3019122987131
112WGCM8MF FLATHEAD-NEAR WEST GLACIER06-27-2022DISCHARGE (KAF)716380188
113WHBI1SALMON-AT WHITEBIRD06-27-2022DISCHARGE (KAF)18451510122
114WRMO3MALHEUR-WARM SPRINGS DAM06-27-2022INFLOW (KAF)85163
115WSRI1WEISER-NEAR WEISER06-27-2022DISCHARGE (KAF)5552107